| time (UTC) | temp C | wind direction | speed KPH | gust KPH | rain 1hr cm | rain 24hr cm | rain mn cm | humidity % | barometer mb |
| 20260503050316 | 10 | 0.0 | 0.0 | 0.00 | 0.00 | 0.00 | 58 | 1010.8 | |
| 20260503045317 | 10 | 0.0 | 1.6 | 0.00 | 0.00 | 0.00 | 59 | 1010.7 | |
| 20260503044317 | 10 | 0.0 | 0.0 | 0.00 | 0.00 | 0.00 | 60 | 1010.8 | |
| 20260503043317 | 11 | 0.0 | 0.0 | 0.00 | 0.00 | 0.00 | 58 | 1010.9 | |
| 20260503042318 | 11 | 0.0 | 0.0 | 0.00 | 0.00 | 0.00 | 56 | 1011.0 | |
| 20260503041316 | 11 | 0.0 | 1.6 | 0.00 | 0.00 | 0.00 | 55 | 1011.1 | |
| 20260503040337 | 11 | 203 | 1.6 | 1.6 | 0.00 | 0.00 | 0.00 | 54 | 1011.1 |
| 20260503035317 | 11 | 0.0 | 1.6 | 0.00 | 0.00 | 0.00 | 52 | 1011.2 | |
| 20260503034317 | 11 | 203 | 1.6 | 3.2 | 0.00 | 0.00 | 0.00 | 52 | 1011.3 |
| 20260503033338 | 12 | 0.0 | 1.6 | 0.00 | 0.00 | 0.00 | 54 | 1011.4 | |
| 20260503032337 | 12 | 203 | 1.6 | 1.6 | 0.00 | 0.00 | 0.00 | 53 | 1011.5 |
| 20260503031317 | 12 | 203 | 1.6 | 3.2 | 0.00 | 0.00 | 0.00 | 51 | 1011.6 |
| 20260503030336 | 12 | 0.0 | 1.6 | 0.00 | 0.00 | 0.00 | 52 | 1011.6 | |
| 20260503025316 | 12 | 0.0 | 0.0 | 0.00 | 0.00 | 0.00 | 52 | 1011.9 | |
| 20260503024316 | 12 | 203 | 1.6 | 3.2 | 0.00 | 0.00 | 0.00 | 52 | 1011.9 |
| 20260503023316 | 12 | 203 | 1.6 | 1.6 | 0.00 | 0.00 | 0.00 | 51 | 1012.0 |
| 20260503022317 | 12 | 203 | 1.6 | 1.6 | 0.00 | 0.00 | 0.00 | 50 | 1011.9 |
| 20260503021318 | 12 | 203 | 1.6 | 1.6 | 0.00 | 0.00 | 0.00 | 50 | 1012.0 |
| 20260503020316 | 12 | 0.0 | 1.6 | 0.00 | 0.00 | 0.00 | 49 | 1012.0 | |
| 20260503015316 | 12 | 0.0 | 1.6 | 0.00 | 0.00 | 0.00 | 51 | 1011.9 | |
| 20260503014316 | 12 | 203 | 1.6 | 1.6 | 0.00 | 0.00 | 0.00 | 50 | 1011.9 |
| 20260503013317 | 13 | 203 | 1.6 | 3.2 | 0.00 | 0.00 | 0.00 | 50 | 1011.9 |
| 20260503012317 | 12 | 180 | 1.6 | 3.2 | 0.00 | 0.00 | 0.00 | 48 | 1011.9 |
| 20260503011316 | 13 | 180 | 1.6 | 3.2 | 0.00 | 0.00 | 0.00 | 48 | 1012.0 |
| 20260503010339 | 13 | 180 | 1.6 | 3.2 | 0.00 | 0.00 | 0.00 | 48 | 1012.1 |
| 20260503005318 | 13 | 180 | 1.6 | 3.2 | 0.00 | 0.00 | 0.00 | 46 | 1012.0 |
| 20260503004317 | 14 | 180 | 1.6 | 3.2 | 0.00 | 0.00 | 0.00 | 42 | 1012.2 |
| 20260503003317 | 15 | 180 | 1.6 | 3.2 | 0.00 | 0.00 | 0.00 | 41 | 1012.2 |
| 20260503002316 | 15 | 180 | 1.6 | 3.2 | 0.00 | 0.00 | 0.00 | 42 | 1012.3 |
| 20260503001316 | 15 | 135 | 1.6 | 3.2 | 0.00 | 0.00 | 0.00 | 42 | 1012.4 |
| 20260503000318 | 16 | 0.0 | 1.6 | 0.00 | 0.00 | 0.00 | 38 | 1012.5 | |
| 20260502235316 | 16 | 113 | 4.8 | 6.4 | 0.00 | 0.00 | 0.00 | 38 | 1012.4 |
| 20260502234316 | 16 | 135 | 1.6 | 4.8 | 0.00 | 0.00 | 0.00 | 36 | 1012.7 |
| 20260502233316 | 16 | 248 | 1.6 | 3.2 | 0.00 | 0.00 | 0.00 | 42 | 1012.8 |
| 20260502232357 | 16 | 158 | 3.2 | 6.4 | 0.00 | 0.00 | 0.00 | 33 | 1012.7 |
| 20260502231316 | 16 | 158 | 1.6 | 3.2 | 0.00 | 0.00 | 0.00 | 33 | 1012.9 |
| 20260502230316 | 16 | 45 | 1.6 | 1.6 | 0.00 | 0.00 | 0.00 | 37 | 1012.8 |
| 20260502225357 | 16 | 68 | 3.2 | 4.8 | 0.00 | 0.00 | 0.00 | 32 | 1013.0 |
| 20260502224316 | 16 | 90 | 1.6 | 3.2 | 0.00 | 0.00 | 0.00 | 35 | 1013.1 |
| 20260502223316 | 16 | 113 | 1.6 | 6.4 | 0.00 | 0.00 | 0.00 | 40 | 1013.2 |
| 20260502222316 | 16 | 45 | 1.6 | 3.2 | 0.00 | 0.00 | 0.00 | 33 | 1013.2 |
| 20260502221316 | 16 | 113 | 4.8 | 12.9 | 0.00 | 0.00 | 0.00 | 32 | 1013.4 |
| 20260502220317 | 16 | 45 | 3.2 | 6.4 | 0.00 | 0.00 | 0.00 | 33 | 1013.5 |
| 20260502215316 | 16 | 113 | 4.8 | 6.4 | 0.00 | 0.00 | 0.00 | 33 | 1013.6 |
| 20260502214317 | 16 | 135 | 6.4 | 9.7 | 0.00 | 0.00 | 0.00 | 31 | 1013.6 |
| 20260502213336 | 16 | 90 | 3.2 | 9.7 | 0.00 | 0.00 | 0.00 | 32 | 1013.8 |
| 20260502212316 | 16 | 113 | 3.2 | 6.4 | 0.00 | 0.00 | 0.00 | 30 | 1014.0 |
| 20260502211316 | 16 | 225 | 1.6 | 4.8 | 0.00 | 0.00 | 0.00 | 33 | 1014.1 |
| 20260502210316 | 16 | 45 | 3.2 | 8.0 | 0.00 | 0.00 | 0.00 | 31 | 1014.4 |
| 20260502205337 | 16 | 45 | 4.8 | 6.4 | 0.00 | 0.00 | 0.00 | 32 | 1014.4 |
| 20260502204336 | 16 | 45 | 6.4 | 8.0 | 0.00 | 0.00 | 0.00 | 29 | 1014.6 |
| 20260502203316 | 16 | 135 | 3.2 | 8.0 | 0.00 | 0.00 | 0.00 | 31 | 1014.8 |
| 20260502202317 | 16 | 113 | 8.0 | 12.9 | 0.00 | 0.00 | 0.00 | 30 | 1014.7 |
| 20260502201316 | 16 | 113 | 6.4 | 11.3 | 0.00 | 0.00 | 0.00 | 31 | 1015.0 |
| 20260502200317 | 15 | 90 | 3.2 | 4.8 | 0.00 | 0.00 | 0.00 | 32 | 1015.1 |
| 20260502195317 | 16 | 90 | 6.4 | 12.9 | 0.00 | 0.00 | 0.00 | 29 | 1015.4 |
| 20260502194336 | 16 | 293 | 4.8 | 6.4 | 0.00 | 0.00 | 0.00 | 31 | 1015.4 |
| 20260502193316 | 15 | 68 | 9.7 | 14.5 | 0.00 | 0.00 | 0.00 | 32 | 1015.8 |
| 20260502192316 | 15 | 113 | 4.8 | 9.7 | 0.00 | 0.00 | 0.00 | 35 | 1015.8 |
| 20260502191316 | 15 | 90 | 3.2 | 6.4 | 0.00 | 0.00 | 0.00 | 32 | 1016.2 |
| 20260502190337 | 15 | 45 | 4.8 | 8.0 | 0.00 | 0.00 | 0.00 | 32 | 1016.1 |
| 20260502185316 | 15 | 180 | 9.7 | 20.9 | 0.00 | 0.00 | 0.00 | 32 | 1016.3 |
| 20260502184317 | 15 | 135 | 4.8 | 6.4 | 0.00 | 0.00 | 0.00 | 34 | 1016.6 |
| 20260502183316 | 15 | 68 | 6.4 | 11.3 | 0.00 | 0.00 | 0.00 | 32 | 1016.6 |
| 20260502182316 | 15 | 90 | 8.0 | 12.9 | 0.00 | 0.00 | 0.00 | 32 | 1016.5 |
| 20260502181316 | 15 | 113 | 8.0 | 11.3 | 0.00 | 0.00 | 0.00 | 34 | 1017.0 |
| 20260502180316 | 15 | 113 | 8.0 | 14.5 | 0.00 | 0.00 | 0.00 | 31 | 1016.9 |
| 20260502170317 | 13 | 203 | 3.2 | 6.4 | 0.00 | 0.00 | 0.00 | 35 | 1017.4 |
| 20260502164316 | 13 | 0 | 6.4 | 12.9 | 0.00 | 0.00 | 0.00 | 36 | 1017.7 |
| 20260502163316 | 12 | 113 | 1.6 | 3.2 | 0.00 | 0.00 | 0.00 | 42 | 1017.8 |
| 20260502162315 | 12 | 90 | 8.0 | 11.3 | 0.00 | 0.00 | 0.00 | 38 | 1017.9 |
| 20260502161316 | 12 | 45 | 4.8 | 8.0 | 0.00 | 0.00 | 0.00 | 39 | 1017.9 |
| 20260502160316 | 13 | 135 | 1.6 | 4.8 | 0.00 | 0.00 | 0.00 | 37 | 1018.0 |
| 20260502152318 | 12 | 158 | 3.2 | 6.4 | 0.00 | 0.00 | 0.00 | 47 | 1018.3 |
| 20260502151318 | 12 | 68 | 4.8 | 14.5 | 0.00 | 0.00 | 0.00 | 46 | 1018.2 |
| 20260502150339 | 11 | 180 | 3.2 | 4.8 | 0.00 | 0.00 | 0.00 | 44 | 1018.4 |
| 20260502130317 | 6 | 225 | 3.2 | 9.7 | 0.00 | 0.00 | 0.00 | 55 | 1019.0 |
| 20260502123337 | 5 | 158 | 4.8 | 9.7 | 0.00 | 0.00 | 0.00 | 54 | 1019.0 |
| 20260502122317 | 5 | 90 | 4.8 | 9.7 | 0.00 | 0.00 | 0.00 | 54 | 1019.0 |
| 20260502121317 | 5 | 135 | 4.8 | 8.0 | 0.00 | 0.00 | 0.00 | 54 | 1018.9 |
| 20260502120317 | 5 | 203 | 3.2 | 6.4 | 0.00 | 0.00 | 0.00 | 53 | 1018.8 |
| 20260502115317 | 5 | 158 | 4.8 | 8.0 | 0.00 | 0.00 | 0.00 | 54 | 1018.8 |
| 20260502114317 | 5 | 113 | 3.2 | 6.4 | 0.00 | 0.00 | 0.00 | 55 | 1018.7 |
| 20260502113338 | 5 | 90 | 6.4 | 14.5 | 0.00 | 0.00 | 0.00 | 56 | 1018.6 |
| 20260502112318 | 4 | 113 | 4.8 | 11.3 | 0.00 | 0.00 | 0.00 | 56 | 1018.5 |
| 20260502111318 | 4 | 113 | 6.4 | 9.7 | 0.00 | 0.00 | 0.00 | 58 | 1018.5 |
| 20260502110338 | 3 | 158 | 4.8 | 8.0 | 0.00 | 0.00 | 0.00 | 60 | 1018.6 |
| 20260502105318 | 2 | 0.0 | 1.6 | 0.00 | 0.00 | 0.00 | 66 | 1018.5 | |
| 20260502104317 | 4 | 225 | 1.6 | 3.2 | 0.00 | 0.00 | 0.00 | 62 | 1018.7 |
| 20260502103317 | 4 | 113 | 4.8 | 8.0 | 0.00 | 0.00 | 0.00 | 57 | 1018.6 |
| 20260502102338 | 4 | 180 | 4.8 | 8.0 | 0.00 | 0.00 | 0.00 | 59 | 1018.6 |
| 20260502101317 | 2 | 135 | 4.8 | 8.0 | 0.00 | 0.00 | 0.00 | 68 | 1018.5 |
| 20260502100318 | 2 | 0.0 | 0.0 | 0.00 | 0.00 | 0.00 | 71 | 1018.6 | |
| 20260502091318 | 2 | 0.0 | 0.0 | 0.00 | 0.00 | 0.00 | 72 | 1018.7 | |
| 20260502090317 | 2 | 0.0 | 0.0 | 0.00 | 0.00 | 0.00 | 73 | 1018.7 | |
| 20260502071317 | 3 | 0.0 | 0.0 | 0.00 | 0.00 | 0.00 | 70 | 1018.6 | |
| 20260502070318 | 3 | 0.0 | 0.0 | 0.00 | 0.00 | 0.00 | 65 | 1018.7 | |
| 20260502065317 | 3 | 0.0 | 0.0 | 0.00 | 0.00 | 0.00 | 66 | 1018.7 | |
| 20260502064317 | 3 | 0.0 | 1.6 | 0.00 | 0.00 | 0.00 | 67 | 1018.8 | |
| 20260502063318 | 4 | 0.0 | 0.0 | 0.00 | 0.00 | 0.00 | 61 | 1018.9 | |
| 20260502062317 | 4 | 0.0 | 0.0 | 0.00 | 0.00 | 0.00 | 62 | 1019.0 | |
| 20260502061316 | 5 | 0.0 | 0.0 | 0.00 | 0.00 | 0.00 | 62 | 1019.0 | |
| 20260502060316 | 5 | 0.0 | 0.0 | 0.00 | 0.00 | 0.00 | 61 | 1018.9 | |
| 20260502055316 | 5 | 0.0 | 0.0 | 0.00 | 0.00 | 0.00 | 62 | 1018.9 | |
| 20260502054318 | 5 | 0.0 | 0.0 | 0.00 | 0.00 | 0.00 | 61 | 1018.7 | |
| 20260502053318 | 5 | 0.0 | 0.0 | 0.00 | 0.00 | 0.00 | 63 | 1018.7 | |
| 20260502052316 | 5 | 0.0 | 0.0 | 0.00 | 0.00 | 0.00 | 58 | 1018.7 | |
| 20260502051317 | 5 | 0.0 | 0.0 | 0.00 | 0.00 | 0.00 | 60 | 1018.7 |